Time,TemperatureF,DewpointF,PressureIn,WindDirection,WindDirectionDegrees,WindSpeedMPH,WindSpeedGustMPH,Humidity,HourlyPrecipIn,Conditions,Clouds,dailyrainin,SoftwareType,DateUTC
2013-05-08 00:02:00,52.2,45.9,29.99,SSE,158,2.2,3.1,79,0.00,,,0.00,WUHU216HW,2013-05-08 07:02:00,
2013-05-08 00:07:00,52.0,45.7,30.00,WSW,248,0.4,3.4,79,0.00,,,0.00,WUHU216HW,2013-05-08 07:07:00,
2013-05-08 00:12:00,51.8,45.5,30.00,SSW,203,0.9,3.4,79,0.00,,,0.00,WUHU216HW,2013-05-08 07:12:00,
2013-05-08 00:17:00,51.8,45.5,30.00,WSW,248,3.8,3.8,79,0.00,,,0.00,WUHU216HW,2013-05-08 07:17:00,
2013-05-08 00:22:00,51.8,45.9,30.00,SW,225,1.1,3.8,80,0.00,,,0.00,WUHU216HW,2013-05-08 07:22:00,
2013-05-08 00:27:00,51.7,45.7,30.00,WSW,248,1.1,3.8,80,0.00,,,0.00,WUHU216HW,2013-05-08 07:27:00,
2013-05-08 00:32:00,51.5,45.5,30.00,SSE,158,0.4,3.6,80,0.00,,,0.00,WUHU216HW,2013-05-08 07:32:00,
2013-05-08 00:37:00,51.5,45.5,30.00,WSW,248,1.8,3.8,80,0.00,,,0.00,WUHU216HW,2013-05-08 07:37:00,
2013-05-08 00:42:00,51.5,45.5,30.01,South,180,1.6,4.3,80,0.00,,,0.00,WUHU216HW,2013-05-08 07:42:00,
2013-05-08 00:47:00,51.5,45.5,30.01,SW,225,1.6,4.3,80,0.00,,,0.00,WUHU216HW,2013-05-08 07:47:00,
2013-05-08 00:52:00,51.3,45.6,30.01,SSW,203,1.6,4.7,81,0.00,,,0.00,WUHU216HW,2013-05-08 07:52:00,
2013-05-08 00:57:00,51.3,45.6,30.01,WSW,248,2.9,4.7,81,0.00,,,0.00,WUHU216HW,2013-05-08 07:57:00,
2013-05-08 01:02:00,51.1,45.5,30.01,SSW,203,0.9,4.7,81,0.00,,,0.00,WUHU216HW,2013-05-08 08:02:00,
2013-05-08 01:07:00,51.1,45.5,30.01,SSE,158,0.9,4.7,81,0.00,,,0.00,WUHU216HW,2013-05-08 08:07:00,
2013-05-08 01:12:00,51.1,45.8,30.01,WSW,248,4.9,4.9,82,0.00,,,0.00,WUHU216HW,2013-05-08 08:12:00,
2013-05-08 01:17:00,51.1,45.8,30.01,SW,225,1.1,4.9,82,0.00,,,0.00,WUHU216HW,2013-05-08 08:17:00,
2013-05-08 01:22:00,51.1,45.8,30.01,SW,225,0.4,5.4,82,0.00,,,0.00,WUHU216HW,2013-05-08 08:22:00,
2013-05-08 01:27:00,51.3,46.0,30.01,WSW,248,1.1,5.4,82,0.00,,,0.00,WUHU216HW,2013-05-08 08:27:00,
2013-05-08 01:32:00,51.3,46.0,30.02,SSW,203,0.4,3.4,82,0.00,,,0.00,WUHU216HW,2013-05-08 08:32:00,
2013-05-08 01:37:00,51.5,46.2,30.02,SSE,158,1.1,4.0,82,0.00,,,0.00,WUHU216HW,2013-05-08 08:37:00,
2013-05-08 01:42:00,51.5,46.2,30.02,South,180,2.0,4.0,82,0.00,,,0.00,WUHU216HW,2013-05-08 08:42:00,
2013-05-08 01:47:00,51.5,46.2,30.02,SSW,203,1.1,3.1,82,0.00,,,0.00,WUHU216HW,2013-05-08 08:47:00,
2013-05-08 01:52:00,51.5,46.2,30.02,South,180,1.3,3.1,82,0.00,,,0.00,WUHU216HW,2013-05-08 08:52:00,
2013-05-08 01:57:00,51.5,46.2,30.02,SE,135,0.4,3.6,82,0.00,,,0.00,WUHU216HW,2013-05-08 08:57:00,
2013-05-08 02:02:00,51.5,46.2,30.02,WSW,248,3.6,4.3,82,0.00,,,0.00,WUHU216HW,2013-05-08 09:02:00,
2013-05-08 02:07:00,51.5,46.2,30.02,SE,135,0.4,4.3,82,0.00,,,0.00,WUHU216HW,2013-05-08 09:07:00,
2013-05-08 02:12:00,51.5,46.2,30.03,SW,225,0.7,3.6,82,0.00,,,0.00,WUHU216HW,2013-05-08 09:12:00,
2013-05-08 02:17:00,51.5,46.2,30.03,WSW,248,1.8,4.9,82,0.00,,,0.00,WUHU216HW,2013-05-08 09:17:00,
2013-05-08 02:22:00,51.5,46.2,30.03,SW,225,0.9,4.9,82,0.00,,,0.00,WUHU216HW,2013-05-08 09:22:00,
2013-05-08 02:27:00,51.5,46.2,30.03,SSW,203,2.0,4.7,82,0.00,,,0.00,WUHU216HW,2013-05-08 09:27:00,
2013-05-08 02:32:00,51.5,46.2,30.03,SSW,203,3.1,4.7,82,0.00,,,0.00,WUHU216HW,2013-05-08 09:32:00,
2013-05-08 02:37:00,51.7,46.4,30.03,SW,225,1.6,5.4,82,0.00,,,0.00,WUHU216HW,2013-05-08 09:37:00,
2013-05-08 02:42:00,51.7,46.6,30.03,WSW,248,4.5,5.4,83,0.00,,,0.00,WUHU216HW,2013-05-08 09:42:00,
2013-05-08 02:47:00,51.5,46.2,30.03,SSE,158,2.5,4.5,82,0.00,,,0.00,WUHU216HW,2013-05-08 09:47:00,
2013-05-08 02:52:00,51.5,46.2,30.03,SW,225,0.2,4.5,82,0.00,,,0.00,WUHU216HW,2013-05-08 09:52:00,
2013-05-08 02:57:00,51.7,46.4,30.04,SE,135,1.1,3.1,82,0.00,,,0.00,WUHU216HW,2013-05-08 09:57:00,
2013-05-08 03:02:00,51.7,46.4,30.04,WSW,248,1.3,3.4,82,0.00,,,0.00,WUHU216HW,2013-05-08 10:02:00,
2013-05-08 03:07:00,51.8,46.5,30.04,SW,225,1.8,3.4,82,0.00,,,0.00,WUHU216HW,2013-05-08 10:07:00,
2013-05-08 03:12:00,51.8,46.5,30.04,WSW,248,2.0,2.5,82,0.00,,,0.00,WUHU216HW,2013-05-08 10:12:00,
2013-05-08 03:17:00,51.8,46.5,30.04,SE,135,0.4,3.6,82,0.00,,,0.00,WUHU216HW,2013-05-08 10:17:00,
2013-05-08 03:22:00,51.8,46.5,30.04,West,270,2.5,3.6,82,0.00,,,0.00,WUHU216HW,2013-05-08 10:22:00,
2013-05-08 03:27:00,51.8,46.5,30.04,WSW,248,1.1,4.7,82,0.00,,,0.00,WUHU216HW,2013-05-08 10:27:00,
2013-05-08 03:32:00,52.0,46.7,30.04,WSW,248,0.9,4.7,82,0.00,,,0.00,WUHU216HW,2013-05-08 10:32:00,
2013-05-08 03:37:00,51.8,46.5,30.05,SW,225,0.7,3.8,82,0.00,,,0.00,WUHU216HW,2013-05-08 10:37:00,
2013-05-08 03:42:00,52.0,46.7,30.05,SE,135,0.2,2.2,82,0.00,,,0.00,WUHU216HW,2013-05-08 10:42:00,
2013-05-08 03:47:00,52.0,46.7,30.05,SSW,203,1.6,2.2,82,0.00,,,0.00,WUHU216HW,2013-05-08 10:47:00,
2013-05-08 03:52:00,52.0,46.7,30.05,WSW,248,0.9,1.6,82,0.00,,,0.00,WUHU216HW,2013-05-08 10:52:00,
2013-05-08 03:57:00,52.0,46.7,30.05,SSE,158,0.0,1.8,82,0.00,,,0.00,WUHU216HW,2013-05-08 10:57:00,
2013-05-08 04:02:00,52.0,46.7,30.05,WSW,248,0.4,3.6,82,0.00,,,0.00,WUHU216HW,2013-05-08 11:02:00,
2013-05-08 04:07:00,52.0,46.7,30.05,WSW,248,1.1,3.6,82,0.00,,,0.00,WUHU216HW,2013-05-08 11:07:00,
2013-05-08 04:12:00,52.2,46.9,30.05,ESE,113,1.3,3.4,82,0.00,,,0.00,WUHU216HW,2013-05-08 11:12:00,
2013-05-08 04:17:00,52.2,46.5,30.05,SW,225,0.4,2.5,81,0.00,,,0.00,WUHU216HW,2013-05-08 11:17:00,
2013-05-08 04:22:00,52.2,46.9,30.05,SW,225,0.4,4.0,82,0.00,,,0.00,WUHU216HW,2013-05-08 11:22:00,
2013-05-08 04:27:00,52.2,46.5,30.05,WSW,248,0.4,4.0,81,0.00,,,0.00,WUHU216HW,2013-05-08 11:27:00,
2013-05-08 04:32:00,52.2,46.5,30.05,South,180,0.7,2.5,81,0.00,,,0.00,WUHU216HW,2013-05-08 11:32:00,
2013-05-08 04:37:00,52.2,46.9,30.05,SW,225,1.3,2.5,82,0.00,,,0.00,WUHU216HW,2013-05-08 11:37:00,
2013-05-08 04:42:00,52.2,46.9,30.05,SE,135,0.0,2.5,82,0.00,,,0.00,WUHU216HW,2013-05-08 11:42:00,
2013-05-08 04:47:00,52.2,46.9,30.05,SW,225,1.8,2.5,82,0.00,,,0.00,WUHU216HW,2013-05-08 11:47:00,
2013-05-08 04:52:00,52.2,46.9,30.05,SSW,203,0.7,2.5,82,0.00,,,0.00,WUHU216HW,2013-05-08 11:52:00,
2013-05-08 04:57:00,52.2,46.9,30.05,SE,135,0.4,2.5,82,0.00,,,0.00,WUHU216HW,2013-05-08 11:57:00,
2013-05-08 05:02:00,52.2,46.9,30.05,SSW,203,0.4,2.7,82,0.00,,,0.00,WUHU216HW,2013-05-08 12:02:00,
2013-05-08 05:07:00,52.2,46.5,30.05,SW,225,0.7,2.7,81,0.00,,,0.00,WUHU216HW,2013-05-08 12:07:00,
2013-05-08 05:12:00,52.2,46.5,30.06,SW,225,0.0,2.7,81,0.00,,,0.00,WUHU216HW,2013-05-08 12:12:00,
2013-05-08 05:17:00,52.4,46.7,30.06,SW,225,0.4,2.7,81,0.00,,,0.00,WUHU216HW,2013-05-08 12:17:00,
2013-05-08 05:22:00,52.4,46.7,30.06,NW,315,1.3,2.5,81,0.00,,,0.00,WUHU216HW,2013-05-08 12:22:00,
2013-05-08 05:27:00,52.4,46.7,30.06,SSW,203,0.4,2.9,81,0.00,,,0.00,WUHU216HW,2013-05-08 12:27:00,
2013-05-08 05:32:00,52.2,46.9,30.06,SSE,158,0.0,2.9,82,0.00,,,0.00,WUHU216HW,2013-05-08 12:32:00,
2013-05-08 05:37:00,52.2,46.5,30.06,SW,225,0.4,2.5,81,0.00,,,0.00,WUHU216HW,2013-05-08 12:37:00,
2013-05-08 05:42:00,52.4,46.7,30.06,WSW,248,0.2,1.8,81,0.00,,,0.00,WUHU216HW,2013-05-08 12:42:00,
2013-05-08 05:47:00,52.4,47.1,30.06,ESE,113,0.4,1.1,82,0.00,,,0.00,WUHU216HW,2013-05-08 12:47:00,
2013-05-08 05:52:00,52.4,46.7,30.06,NE,45,0.4,2.5,81,0.00,,,0.00,WUHU216HW,2013-05-08 12:52:00,
2013-05-08 05:57:00,52.2,46.5,30.06,SW,225,0.4,2.5,81,0.00,,,0.00,WUHU216HW,2013-05-08 12:57:00,
2013-05-08 06:02:00,52.4,46.7,30.06,WNW,293,1.3,1.8,81,0.00,,,0.00,WUHU216HW,2013-05-08 13:02:00,
2013-05-08 06:07:00,52.4,46.7,30.07,SSW,203,3.1,3.1,81,0.00,,,0.00,WUHU216HW,2013-05-08 13:07:00,
2013-05-08 06:12:00,52.4,47.1,30.07,SE,135,0.2,3.1,82,0.00,,,0.00,WUHU216HW,2013-05-08 13:12:00,
2013-05-08 06:17:00,52.4,46.7,30.07,SSW,203,0.0,3.1,81,0.00,,,0.00,WUHU216HW,2013-05-08 13:17:00,
2013-05-08 06:22:00,52.4,47.1,30.07,SSW,203,0.4,2.0,82,0.00,,,0.00,WUHU216HW,2013-05-08 13:22:00,
2013-05-08 06:27:00,52.4,47.1,30.07,SW,225,0.2,3.4,82,0.00,,,0.00,WUHU216HW,2013-05-08 13:27:00,
2013-05-08 06:32:00,52.4,47.1,30.07,WSW,248,2.0,3.4,82,0.00,,,0.00,WUHU216HW,2013-05-08 13:32:00,
2013-05-08 06:37:00,52.4,47.1,30.07,SSW,203,1.3,2.7,82,0.00,,,0.00,WUHU216HW,2013-05-08 13:37:00,
2013-05-08 06:42:00,52.4,46.7,30.07,SE,135,0.9,2.7,81,0.00,,,0.00,WUHU216HW,2013-05-08 13:42:00,
2013-05-08 06:47:00,52.6,46.9,30.07,SSW,203,0.9,2.7,81,0.00,,,0.00,WUHU216HW,2013-05-08 13:47:00,
2013-05-08 06:52:00,52.6,46.9,30.08,WSW,248,0.7,2.7,81,0.00,,,0.00,WUHU216HW,2013-05-08 13:52:00,
2013-05-08 06:57:00,52.6,47.3,30.08,SW,225,3.4,3.4,82,0.00,,,0.00,WUHU216HW,2013-05-08 13:57:00,
2013-05-08 07:02:00,52.6,46.9,30.08,SW,225,2.7,3.8,81,0.00,,,0.00,WUHU216HW,2013-05-08 14:02:00,
2013-05-08 07:07:00,52.6,46.9,30.08,SE,135,1.1,4.5,81,0.00,,,0.00,WUHU216HW,2013-05-08 14:07:00,
2013-05-08 07:12:00,52.6,46.9,30.08,WSW,248,0.7,4.5,81,0.00,,,0.00,WUHU216HW,2013-05-08 14:12:00,
2013-05-08 07:17:00,52.7,47.1,30.09,SSW,203,1.8,2.9,81,0.00,,,0.00,WUHU216HW,2013-05-08 14:17:00,
2013-05-08 07:22:00,52.7,47.1,30.08,West,270,0.9,3.6,81,0.00,,,0.00,WUHU216HW,2013-05-08 14:22:00,
2013-05-08 07:27:00,52.7,47.1,30.09,SSE,158,0.4,3.6,81,0.00,,,0.00,WUHU216HW,2013-05-08 14:27:00,
2013-05-08 07:32:00,52.9,47.3,30.09,SSW,203,0.9,4.9,81,0.00,,,0.00,WUHU216HW,2013-05-08 14:32:00,
2013-05-08 07:37:00,52.9,47.3,30.09,SW,225,2.2,4.9,81,0.00,,,0.00,WUHU216HW,2013-05-08 14:37:00,
2013-05-08 07:42:00,52.9,47.3,30.09,WSW,248,1.3,4.0,81,0.00,,,0.00,WUHU216HW,2013-05-08 14:42:00,
2013-05-08 07:47:00,52.9,47.3,30.09,WSW,248,0.7,3.8,81,0.00,,,0.00,WUHU216HW,2013-05-08 14:47:00,
2013-05-08 07:52:00,52.9,47.3,30.09,SE,135,0.2,3.4,81,0.00,,,0.00,WUHU216HW,2013-05-08 14:52:00,
2013-05-08 07:57:00,52.9,47.3,30.09,WSW,248,4.0,4.0,81,0.00,,,0.00,WUHU216HW,2013-05-08 14:57:00,
2013-05-08 08:02:00,52.9,47.3,30.10,WSW,248,1.6,4.0,81,0.00,,,0.00,WUHU216HW,2013-05-08 15:02:00,
2013-05-08 08:07:00,52.9,47.3,30.09,WSW,248,1.1,4.0,81,0.00,,,0.00,WUHU216HW,2013-05-08 15:07:00,
2013-05-08 08:12:00,53.1,47.4,30.10,SSW,203,2.5,7.2,81,0.00,,,0.00,WUHU216HW,2013-05-08 15:12:00,
2013-05-08 08:17:00,53.1,47.4,30.10,SW,225,2.7,7.2,81,0.00,,,0.00,WUHU216HW,2013-05-08 15:17:00,
2013-05-08 08:22:00,53.1,47.4,30.10,SW,225,1.6,3.8,81,0.00,,,0.00,WUHU216HW,2013-05-08 15:22:00,
2013-05-08 08:27:00,52.9,47.3,30.10,South,180,1.3,3.8,81,0.00,,,0.00,WUHU216HW,2013-05-08 15:27:00,
2013-05-08 08:32:00,52.9,47.3,30.10,SW,225,2.5,3.6,81,0.00,,,0.00,WUHU216HW,2013-05-08 15:32:00,
2013-05-08 08:37:00,52.9,47.3,30.10,WSW,248,0.7,3.6,81,0.00,,,0.00,WUHU216HW,2013-05-08 15:37:00,
2013-05-08 08:42:00,52.9,47.3,30.10,SW,225,1.1,2.7,81,0.00,,,0.00,WUHU216HW,2013-05-08 15:42:00,
2013-05-08 08:47:00,53.1,47.4,30.10,WSW,248,1.8,3.1,81,0.00,,,0.00,WUHU216HW,2013-05-08 15:47:00,
2013-05-08 08:52:00,53.1,47.4,30.10,SW,225,1.3,3.1,81,0.00,,,0.00,WUHU216HW,2013-05-08 15:52:00,
2013-05-08 08:57:00,53.3,47.6,30.10,SSW,203,1.8,3.1,81,0.00,,,0.00,WUHU216HW,2013-05-08 15:57:00,
2013-05-08 09:02:00,53.3,47.6,30.10,SW,225,2.5,4.7,81,0.00,,,0.00,WUHU216HW,2013-05-08 16:02:00,
2013-05-08 09:07:00,53.3,47.6,30.10,West,270,1.8,4.7,81,0.00,,,0.00,WUHU216HW,2013-05-08 16:07:00,
2013-05-08 09:12:00,53.3,47.6,30.10,SW,225,0.4,4.0,81,0.00,,,0.00,WUHU216HW,2013-05-08 16:12:00,
2013-05-08 09:17:00,53.5,47.8,30.10,SW,225,0.9,4.0,81,0.00,,,0.00,WUHU216HW,2013-05-08 16:17:00,
2013-05-08 09:22:00,53.5,47.8,30.10,ESE,113,1.1,4.7,81,0.00,,,0.00,WUHU216HW,2013-05-08 16:22:00,
2013-05-08 09:27:00,53.5,47.8,30.10,SW,225,1.3,4.7,81,0.00,,,0.00,WUHU216HW,2013-05-08 16:27:00,
2013-05-08 09:32:00,53.5,47.8,30.10,WSW,248,1.1,4.3,81,0.00,,,0.00,WUHU216HW,2013-05-08 16:32:00,
2013-05-08 09:37:00,53.6,48.0,30.10,SW,225,2.5,3.4,81,0.00,,,0.00,WUHU216HW,2013-05-08 16:37:00,
2013-05-08 09:42:00,53.6,48.0,30.11,SW,225,0.7,4.0,81,0.00,,,0.00,WUHU216HW,2013-05-08 16:42:00,
2013-05-08 09:47:00,53.6,48.0,30.11,SSW,203,2.2,4.0,81,0.00,,,0.00,WUHU216HW,2013-05-08 16:47:00,
2013-05-08 09:52:00,53.6,48.0,30.11,SW,225,2.7,2.7,81,0.00,,,0.00,WUHU216HW,2013-05-08 16:52:00,
2013-05-08 09:57:00,53.8,47.9,30.11,WSW,248,2.0,4.7,80,0.00,,,0.00,WUHU216HW,2013-05-08 16:57:00,
2013-05-08 10:02:00,53.6,47.7,30.11,ESE,113,0.4,4.7,80,0.00,,,0.00,WUHU216HW,2013-05-08 17:02:00,
2013-05-08 10:07:00,53.8,47.9,30.11,SW,225,3.1,4.3,80,0.00,,,0.00,WUHU216HW,2013-05-08 17:07:00,
2013-05-08 10:12:00,53.8,47.9,30.11,SSW,203,2.5,4.3,80,0.00,,,0.00,WUHU216HW,2013-05-08 17:12:00,
2013-05-08 10:17:00,54.0,48.1,30.11,SSW,203,0.4,3.8,80,0.00,,,0.00,WUHU216HW,2013-05-08 17:17:00,
2013-05-08 10:22:00,54.0,48.1,30.11,SW,225,1.1,2.9,80,0.00,,,0.00,WUHU216HW,2013-05-08 17:22:00,
2013-05-08 10:27:00,54.4,48.3,30.11,SW,225,0.4,1.8,80,0.00,,,0.00,WUHU216HW,2013-05-08 17:27:00,
2013-05-08 10:32:00,54.4,48.3,30.11,WSW,248,1.1,1.8,80,0.00,,,0.00,WUHU216HW,2013-05-08 17:32:00,
2013-05-08 10:37:00,54.4,48.3,30.11,SW,225,2.0,3.1,80,0.00,,,0.00,WUHU216HW,2013-05-08 17:37:00,
2013-05-08 10:42:00,54.4,48.0,30.12,SSE,158,1.8,3.8,79,0.00,,,0.00,WUHU216HW,2013-05-08 17:42:00,
2013-05-08 10:47:00,54.5,48.2,30.12,SE,135,0.4,3.8,79,0.00,,,0.00,WUHU216HW,2013-05-08 17:47:00,
2013-05-08 10:52:00,54.5,48.2,30.12,SE,135,0.4,2.9,79,0.00,,,0.00,WUHU216HW,2013-05-08 17:52:00,
2013-05-08 10:57:00,54.7,48.3,30.12,SW,225,1.1,2.7,79,0.00,,,0.00,WUHU216HW,2013-05-08 17:57:00,
2013-05-08 11:02:00,54.9,48.5,30.12,West,270,2.5,2.9,79,0.00,,,0.00,WUHU216HW,2013-05-08 18:02:00,
2013-05-08 11:07:00,55.1,48.7,30.12,SE,135,0.2,2.9,79,0.00,,,0.00,WUHU216HW,2013-05-08 18:07:00,
2013-05-08 11:12:00,55.3,48.8,30.12,North,0,1.1,2.5,79,0.00,,,0.00,WUHU216HW,2013-05-08 18:12:00,
2013-05-08 11:17:00,55.3,48.8,30.12,SSE,158,0.7,2.2,79,0.00,,,0.00,WUHU216HW,2013-05-08 18:17:00,
2013-05-08 11:22:00,55.3,48.8,30.12,NE,45,0.4,1.8,79,0.00,,,0.00,WUHU216HW,2013-05-08 18:22:00,
2013-05-08 11:27:00,55.3,48.8,30.12,North,0,0.4,1.3,79,0.00,,,0.00,WUHU216HW,2013-05-08 18:27:00,
2013-05-08 11:32:00,55.4,49.0,30.12,North,0,1.1,1.6,79,0.00,,,0.00,WUHU216HW,2013-05-08 18:32:00,
2013-05-08 11:37:00,55.3,48.8,30.12,SE,135,0.4,1.8,79,0.00,,,0.00,WUHU216HW,2013-05-08 18:37:00,
2013-05-08 11:42:00,55.4,49.0,30.12,SSE,158,0.4,1.8,79,0.00,,,0.00,WUHU216HW,2013-05-08 18:42:00,
2013-05-08 11:47:00,55.4,49.0,30.12,SE,135,0.0,1.3,79,0.00,,,0.00,WUHU216HW,2013-05-08 18:47:00,
2013-05-08 11:52:00,55.6,49.1,30.12,West,270,1.3,2.5,79,0.00,,,0.00,WUHU216HW,2013-05-08 18:52:00,
2013-05-08 11:57:00,55.8,49.3,30.12,South,180,0.0,4.7,79,0.00,,,0.00,WUHU216HW,2013-05-08 18:57:00,
2013-05-08 12:02:00,55.8,49.3,30.13,North,0,0.4,4.7,79,0.00,,,0.00,WUHU216HW,2013-05-08 19:02:00,
2013-05-08 12:07:00,56.0,49.9,30.12,SW,225,0.4,1.1,80,0.00,,,0.00,WUHU216HW,2013-05-08 19:07:00,
2013-05-08 12:12:00,55.8,49.3,30.12,SSW,203,1.6,3.8,79,0.00,,,0.00,WUHU216HW,2013-05-08 19:12:00,
2013-05-08 12:17:00,56.0,49.5,30.12,North,0,0.2,3.8,79,0.00,,,0.00,WUHU216HW,2013-05-08 19:17:00,
2013-05-08 12:22:00,56.0,49.5,30.12,NE,45,2.2,2.7,79,0.00,,,0.00,WUHU216HW,2013-05-08 19:22:00,
2013-05-08 12:27:00,56.0,49.5,30.12,SW,225,1.1,2.7,79,0.00,,,0.00,WUHU216HW,2013-05-08 19:27:00,
2013-05-08 12:32:00,56.0,49.5,30.12,North,0,1.1,2.2,79,0.00,,,0.00,WUHU216HW,2013-05-08 19:32:00,
2013-05-08 12:37:00,56.2,49.7,30.12,SE,135,0.7,3.6,79,0.00,,,0.00,WUHU216HW,2013-05-08 19:37:00,
2013-05-08 12:42:00,56.3,49.9,30.12,ESE,113,0.4,3.6,79,0.00,,,0.00,WUHU216HW,2013-05-08 19:42:00,
2013-05-08 12:47:00,56.2,49.3,30.12,WSW,248,0.9,1.6,78,0.00,,,0.00,WUHU216HW,2013-05-08 19:47:00,
2013-05-08 12:52:00,56.3,49.9,30.12,ESE,113,0.4,1.6,79,0.00,,,0.00,WUHU216HW,2013-05-08 19:52:00,
2013-05-08 12:57:00,56.5,50.0,30.12,NNE,23,0.9,1.6,79,0.00,,,0.00,WUHU216HW,2013-05-08 19:57:00,
2013-05-08 13:02:00,56.5,50.0,30.12,ESE,113,1.1,2.7,79,0.00,,,0.00,WUHU216HW,2013-05-08 20:02:00,
2013-05-08 13:07:00,56.7,50.2,30.12,NNW,338,0.9,2.7,79,0.00,,,0.00,WUHU216HW,2013-05-08 20:07:00,
2013-05-08 13:12:00,57.1,50.2,30.12,East,90,0.9,1.6,78,0.00,,,0.00,WUHU216HW,2013-05-08 20:12:00,
2013-05-08 13:17:00,57.2,50.4,30.12,NNE,23,0.4,2.0,78,0.00,,,0.00,WUHU216HW,2013-05-08 20:17:00,
2013-05-08 13:22:00,57.2,50.4,30.12,SSW,203,0.4,2.5,78,0.00,,,0.00,WUHU216HW,2013-05-08 20:22:00,
2013-05-08 13:27:00,57.4,50.2,30.12,ENE,68,1.1,3.4,77,0.00,,,0.00,WUHU216HW,2013-05-08 20:27:00,
2013-05-08 13:32:00,57.4,50.2,30.12,WSW,248,1.1,3.4,77,0.00,,,0.00,WUHU216HW,2013-05-08 20:32:00,
2013-05-08 13:37:00,57.6,50.4,30.12,ESE,113,0.9,2.0,77,0.00,,,0.00,WUHU216HW,2013-05-08 20:37:00,
2013-05-08 13:42:00,57.8,50.2,30.12,NNE,23,1.8,4.0,76,0.00,,,0.00,WUHU216HW,2013-05-08 20:42:00,
2013-05-08 13:47:00,58.0,50.4,30.12,SW,225,1.1,4.0,76,0.00,,,0.00,WUHU216HW,2013-05-08 20:47:00,
2013-05-08 13:52:00,58.5,51.3,30.12,SSE,158,1.6,3.6,77,0.00,,,0.00,WUHU216HW,2013-05-08 20:52:00,
2013-05-08 13:57:00,59.0,51.5,30.12,ESE,113,0.9,2.5,76,0.00,,,0.00,WUHU216HW,2013-05-08 20:57:00,
2013-05-08 14:02:00,59.0,51.1,30.12,West,270,0.7,1.8,75,0.00,,,0.00,WUHU216HW,2013-05-08 21:02:00,
2013-05-08 14:07:00,59.2,50.9,30.12,West,270,0.4,3.1,74,0.00,,,0.00,WUHU216HW,2013-05-08 21:07:00,
2013-05-08 14:12:00,59.4,51.1,30.12,South,180,1.1,3.1,74,0.00,,,0.00,WUHU216HW,2013-05-08 21:12:00,
2013-05-08 14:17:00,59.2,50.6,30.12,North,0,0.9,2.9,73,0.00,,,0.00,WUHU216HW,2013-05-08 21:17:00,
2013-05-08 14:22:00,59.2,50.6,30.12,SW,225,0.4,2.9,73,0.00,,,0.00,WUHU216HW,2013-05-08 21:22:00,
2013-05-08 14:27:00,59.6,50.9,30.12,SW,225,1.6,2.9,73,0.00,,,0.00,WUHU216HW,2013-05-08 21:27:00,
2013-05-08 14:32:00,59.9,51.3,30.12,SW,225,3.6,3.6,73,0.00,,,0.00,WUHU216HW,2013-05-08 21:32:00,
2013-05-08 14:37:00,60.3,51.7,30.12,South,180,0.2,5.4,73,0.00,,,0.00,WUHU216HW,2013-05-08 21:37:00,
2013-05-08 14:42:00,60.8,52.2,30.12,NNE,23,1.6,5.4,73,0.00,,,0.00,WUHU216HW,2013-05-08 21:42:00,
2013-05-08 14:47:00,60.5,51.1,30.12,NNE,23,0.4,3.1,71,0.00,,,0.00,WUHU216HW,2013-05-08 21:47:00,
2013-05-08 14:52:00,59.9,50.9,30.12,North,0,0.9,3.4,72,0.00,,,0.00,WUHU216HW,2013-05-08 21:52:00,
2013-05-08 14:57:00,60.1,51.1,30.12,SE,135,0.4,5.1,72,0.00,,,0.00,WUHU216HW,2013-05-08 21:57:00,
2013-05-08 15:02:00,60.8,51.8,30.12,North,0,0.4,5.1,72,0.00,,,0.00,WUHU216HW,2013-05-08 22:02:00,
2013-05-08 15:07:00,61.6,52.1,30.12,SSE,158,1.1,6.0,71,0.00,,,0.00,WUHU216HW,2013-05-08 22:07:00,
2013-05-08 15:12:00,62.3,53.1,30.12,WNW,293,0.2,6.0,72,0.00,,,0.00,WUHU216HW,2013-05-08 22:12:00,
2013-05-08 15:17:00,62.8,53.6,30.12,SW,225,0.4,2.7,72,0.00,,,0.00,WUHU216HW,2013-05-08 22:17:00,
2013-05-08 15:22:00,63.4,53.8,30.12,WSW,248,2.7,2.7,71,0.00,,,0.00,WUHU216HW,2013-05-08 22:22:00,
2013-05-08 15:27:00,63.5,53.6,30.11,ENE,68,2.7,3.6,70,0.00,,,0.00,WUHU216HW,2013-05-08 22:27:00,
2013-05-08 15:32:00,63.0,52.3,30.11,ESE,113,1.8,4.0,68,0.00,,,0.00,WUHU216HW,2013-05-08 22:32:00,
2013-05-08 15:37:00,62.8,52.1,30.11,NNE,23,1.6,4.0,68,0.00,,,0.00,WUHU216HW,2013-05-08 22:37:00,
2013-05-08 15:42:00,62.3,52.0,30.11,North,0,2.0,5.1,69,0.00,,,0.00,WUHU216HW,2013-05-08 22:42:00,
2013-05-08 15:47:00,61.9,51.7,30.10,North,0,2.7,5.6,69,0.00,,,0.00,WUHU216HW,2013-05-08 22:47:00,
2013-05-08 15:52:00,61.9,51.7,30.10,NNW,338,2.5,5.6,69,0.00,,,0.00,WUHU216HW,2013-05-08 22:52:00,
2013-05-08 15:57:00,61.6,51.4,30.10,NNE,23,3.4,4.5,69,0.00,,,0.00,WUHU216HW,2013-05-08 22:57:00,
2013-05-08 16:02:00,61.6,51.4,30.10,ENE,68,6.3,6.3,69,0.00,,,0.00,WUHU216HW,2013-05-08 23:02:00,
2013-05-08 16:07:00,61.6,51.8,30.10,North,0,2.5,6.3,70,0.00,,,0.00,WUHU216HW,2013-05-08 23:07:00,
2013-05-08 16:12:00,62.3,52.7,30.10,East,90,0.9,4.7,71,0.00,,,0.00,WUHU216HW,2013-05-08 23:12:00,
2013-05-08 16:17:00,62.8,52.9,30.10,ESE,113,1.1,4.0,70,0.00,,,0.00,WUHU216HW,2013-05-08 23:17:00,
2013-05-08 16:22:00,62.6,52.3,30.10,ENE,68,2.2,5.1,69,0.00,,,0.00,WUHU216HW,2013-05-08 23:22:00,
2013-05-08 16:27:00,62.6,52.3,30.10,North,0,3.4,5.1,69,0.00,,,0.00,WUHU216HW,2013-05-08 23:27:00,
2013-05-08 16:32:00,63.0,52.7,30.10,NE,45,2.0,4.7,69,0.00,,,0.00,WUHU216HW,2013-05-08 23:32:00,
2013-05-08 16:37:00,63.2,52.8,30.10,NNW,338,2.9,4.3,69,0.00,,,0.00,WUHU216HW,2013-05-08 23:37:00,
2013-05-08 16:42:00,63.4,52.7,30.09,NE,45,4.0,5.1,68,0.00,,,0.00,WUHU216HW,2013-05-08 23:42:00,
2013-05-08 16:47:00,63.5,52.4,30.10,North,0,3.4,6.7,67,0.00,,,0.00,WUHU216HW,2013-05-08 23:47:00,
2013-05-08 16:52:00,63.5,52.4,30.10,NNE,23,3.4,6.7,67,0.00,,,0.00,WUHU216HW,2013-05-08 23:52:00,
2013-05-08 16:57:00,63.4,52.2,30.10,NE,45,3.8,4.7,67,0.00,,,0.00,WUHU216HW,2013-05-08 23:57:00,
2013-05-08 17:02:00,63.0,51.8,30.10,NNE,23,3.1,4.5,67,0.00,,,0.00,WUHU216HW,2013-05-09 00:02:00,
2013-05-08 17:07:00,63.0,52.3,30.10,NNE,23,0.4,3.8,68,0.00,,,0.00,WUHU216HW,2013-05-09 00:07:00,
2013-05-08 17:12:00,62.8,52.1,30.09,ESE,113,1.3,4.3,68,0.00,,,0.00,WUHU216HW,2013-05-09 00:12:00,
2013-05-08 17:17:00,63.0,52.3,30.09,ENE,68,1.3,4.3,68,0.00,,,0.00,WUHU216HW,2013-05-09 00:17:00,
2013-05-08 17:22:00,63.0,52.7,30.09,ENE,68,2.5,2.9,69,0.00,,,0.00,WUHU216HW,2013-05-09 00:22:00,
2013-05-08 17:27:00,63.2,52.8,30.09,ESE,113,1.1,3.6,69,0.00,,,0.00,WUHU216HW,2013-05-09 00:27:00,
2013-05-08 17:32:00,63.4,53.0,30.09,East,90,0.9,3.6,69,0.00,,,0.00,WUHU216HW,2013-05-09 00:32:00,
2013-05-08 17:37:00,63.5,52.8,30.09,NNE,23,1.8,2.9,68,0.00,,,0.00,WUHU216HW,2013-05-09 00:37:00,
2013-05-08 17:42:00,63.7,53.4,30.09,ENE,68,1.1,2.5,69,0.00,,,0.00,WUHU216HW,2013-05-09 00:42:00,
2013-05-08 17:47:00,63.7,53.4,30.09,NE,45,3.4,3.4,69,0.00,,,0.00,WUHU216HW,2013-05-09 00:47:00,
2013-05-08 17:52:00,63.9,53.2,30.09,North,0,3.4,3.6,68,0.00,,,0.00,WUHU216HW,2013-05-09 00:52:00,
2013-05-08 17:57:00,63.9,52.8,30.08,NE,45,2.9,3.8,67,0.00,,,0.00,WUHU216HW,2013-05-09 00:57:00,
2013-05-08 18:02:00,63.5,52.8,30.08,NE,45,2.2,3.8,68,0.00,,,0.00,WUHU216HW,2013-05-09 01:02:00,
2013-05-08 18:07:00,63.4,53.0,30.08,NE,45,2.5,3.1,69,0.00,,,0.00,WUHU216HW,2013-05-09 01:07:00,
2013-05-08 18:12:00,63.0,52.7,30.08,NNE,23,2.0,2.7,69,0.00,,,0.00,WUHU216HW,2013-05-09 01:12:00,
2013-05-08 18:17:00,62.8,52.5,30.08,NNE,23,2.2,2.7,69,0.00,,,0.00,WUHU216HW,2013-05-09 01:17:00,
2013-05-08 18:22:00,62.3,52.0,30.08,East,90,1.8,2.5,69,0.00,,,0.00,WUHU216HW,2013-05-09 01:22:00,
2013-05-08 18:27:00,62.1,52.3,30.08,ENE,68,1.8,2.7,70,0.00,,,0.00,WUHU216HW,2013-05-09 01:27:00,
2013-05-08 18:32:00,62.1,52.3,30.08,NE,45,1.8,2.7,70,0.00,,,0.00,WUHU216HW,2013-05-09 01:32:00,
2013-05-08 18:37:00,62.1,52.3,30.08,ESE,113,1.1,2.2,70,0.00,,,0.00,WUHU216HW,2013-05-09 01:37:00,
2013-05-08 18:42:00,62.3,52.4,30.08,East,90,0.9,1.8,70,0.00,,,0.00,WUHU216HW,2013-05-09 01:42:00,
2013-05-08 18:47:00,62.3,52.4,30.08,ENE,68,1.3,1.3,70,0.00,,,0.00,WUHU216HW,2013-05-09 01:47:00,
2013-05-08 18:52:00,62.3,52.4,30.08,East,90,1.1,2.5,70,0.00,,,0.00,WUHU216HW,2013-05-09 01:52:00,
2013-05-08 18:57:00,62.6,52.7,30.08,NNE,23,0.4,2.5,70,0.00,,,0.00,WUHU216HW,2013-05-09 01:57:00,
2013-05-08 19:02:00,62.6,52.3,30.08,NNE,23,1.3,1.8,69,0.00,,,0.00,WUHU216HW,2013-05-09 02:02:00,
2013-05-08 19:07:00,62.6,52.7,30.08,NE,45,0.7,1.8,70,0.00,,,0.00,WUHU216HW,2013-05-09 02:07:00,
2013-05-08 19:12:00,62.6,52.7,30.08,ENE,68,0.4,1.8,70,0.00,,,0.00,WUHU216HW,2013-05-09 02:12:00,
2013-05-08 19:17:00,62.6,52.7,30.08,NE,45,0.4,1.1,70,0.00,,,0.00,WUHU216HW,2013-05-09 02:17:00,
2013-05-08 19:22:00,62.8,52.9,30.08,NE,45,0.0,1.1,70,0.00,,,0.00,WUHU216HW,2013-05-09 02:22:00,
2013-05-08 19:27:00,62.6,52.7,30.08,NE,45,0.2,0.7,70,0.00,,,0.00,WUHU216HW,2013-05-09 02:27:00,
2013-05-08 19:32:00,62.1,52.3,30.08,NE,45,0.4,0.7,70,0.00,,,0.00,WUHU216HW,2013-05-09 02:32:00,
2013-05-08 19:37:00,61.6,51.4,30.08,NE,45,0.0,0.4,69,0.00,,,0.00,WUHU216HW,2013-05-09 02:37:00,
2013-05-08 19:42:00,61.4,51.6,30.08,NE,45,0.0,0.4,70,0.00,,,0.00,WUHU216HW,2013-05-09 02:42:00,
2013-05-08 19:47:00,61.6,51.8,30.08,NE,45,0.0,0.0,70,0.00,,,0.00,WUHU216HW,2013-05-09 02:47:00,
2013-05-08 19:52:00,61.6,51.8,30.08,NE,45,0.0,0.0,70,0.00,,,0.00,WUHU216HW,2013-05-09 02:52:00,
2013-05-08 19:57:00,61.2,51.9,30.08,NE,45,0.0,0.0,71,0.00,,,0.00,WUHU216HW,2013-05-09 02:57:00,
2013-05-08 20:02:00,61.0,51.7,30.08,NE,45,0.4,0.4,71,0.00,,,0.00,WUHU216HW,2013-05-09 03:02:00,
2013-05-08 20:07:00,60.8,51.5,30.08,WSW,248,0.9,0.9,71,0.00,,,0.00,WUHU216HW,2013-05-09 03:07:00,
2013-05-08 20:12:00,60.5,51.5,30.09,WSW,248,0.2,0.9,72,0.00,,,0.00,WUHU216HW,2013-05-09 03:12:00,
2013-05-08 20:17:00,60.1,51.1,30.09,WSW,248,0.4,0.9,72,0.00,,,0.00,WUHU216HW,2013-05-09 03:17:00,
2013-05-08 20:22:00,59.6,50.9,30.09,WSW,248,0.9,0.9,73,0.00,,,0.00,WUHU216HW,2013-05-09 03:22:00,
2013-05-08 20:27:00,59.2,50.6,30.09,WSW,248,0.2,0.9,73,0.00,,,0.00,WUHU216HW,2013-05-09 03:27:00,
2013-05-08 20:32:00,58.9,50.6,30.09,WSW,248,0.2,0.9,74,0.00,,,0.00,WUHU216HW,2013-05-09 03:32:00,
2013-05-08 20:37:00,58.7,50.4,30.09,WSW,248,0.0,0.9,74,0.00,,,0.00,WUHU216HW,2013-05-09 03:37:00,
2013-05-08 20:42:00,58.7,50.4,30.08,WSW,248,0.0,0.2,74,0.00,,,0.00,WUHU216HW,2013-05-09 03:42:00,
2013-05-08 20:47:00,58.3,50.0,30.09,WSW,248,0.0,0.0,74,0.00,,,0.00,WUHU216HW,2013-05-09 03:47:00,
2013-05-08 20:52:00,58.0,50.0,30.09,WSW,248,0.0,0.0,75,0.00,,,0.00,WUHU216HW,2013-05-09 03:52:00,
2013-05-08 20:57:00,57.6,49.7,30.09,WSW,248,0.7,0.9,75,0.00,,,0.00,WUHU216HW,2013-05-09 03:57:00,
2013-05-08 21:01:00,57.4,49.9,30.09,WSW,248,0.9,1.1,76,0.00,,,0.00,WUHU216HW,2013-05-09 04:01:00,
2013-05-08 21:06:00,57.2,49.7,30.09,WSW,248,0.4,1.3,76,0.00,,,0.00,WUHU216HW,2013-05-09 04:06:00,
2013-05-08 21:11:00,57.1,49.5,30.09,WSW,248,0.7,1.3,76,0.00,,,0.00,WUHU216HW,2013-05-09 04:11:00,
2013-05-08 21:16:00,56.7,49.1,30.09,SW,225,1.1,1.8,76,0.00,,,0.00,WUHU216HW,2013-05-09 04:16:00,
2013-05-08 21:21:00,56.5,49.3,30.09,SW,225,0.4,1.8,77,0.00,,,0.00,WUHU216HW,2013-05-09 04:21:00,
2013-05-08 21:26:00,56.2,49.0,30.09,SW,225,0.4,1.6,77,0.00,,,0.00,WUHU216HW,2013-05-09 04:26:00,
2013-05-08 21:31:00,56.0,49.1,30.10,SW,225,1.1,1.1,78,0.00,,,0.00,WUHU216HW,2013-05-09 04:31:00,
2013-05-08 21:36:00,55.8,49.0,30.10,WSW,248,0.9,1.1,78,0.00,,,0.00,WUHU216HW,2013-05-09 04:36:00,
2013-05-08 21:41:00,55.8,49.0,30.10,WSW,248,1.1,1.1,78,0.00,,,0.00,WUHU216HW,2013-05-09 04:41:00,
2013-05-08 21:46:00,55.4,49.0,30.10,WSW,248,0.9,1.1,79,0.00,,,0.00,WUHU216HW,2013-05-09 04:46:00,
2013-05-08 21:51:00,55.3,48.8,30.10,WSW,248,0.9,1.3,79,0.00,,,0.00,WUHU216HW,2013-05-09 04:51:00,
2013-05-08 21:56:00,55.1,48.3,30.10,WSW,248,1.6,1.8,78,0.00,,,0.00,WUHU216HW,2013-05-09 04:56:00,
2013-05-08 22:01:00,55.1,48.3,30.10,WSW,248,1.8,2.0,78,0.00,,,0.00,WUHU216HW,2013-05-09 05:01:00,
2013-05-08 22:06:00,54.9,48.2,30.11,West,270,1.6,2.0,78,0.00,,,0.00,WUHU216HW,2013-05-09 05:06:00,
2013-05-08 22:11:00,54.5,48.2,30.10,WSW,248,1.1,2.2,79,0.00,,,0.00,WUHU216HW,2013-05-09 05:11:00,
2013-05-08 22:16:00,54.4,48.0,30.11,WSW,248,1.6,2.2,79,0.00,,,0.00,WUHU216HW,2013-05-09 05:16:00,
2013-05-08 22:21:00,54.4,48.0,30.11,WSW,248,1.3,1.8,79,0.00,,,0.00,WUHU216HW,2013-05-09 05:21:00,
2013-05-08 22:26:00,54.2,47.8,30.11,WSW,248,1.1,1.6,79,0.00,,,0.00,WUHU216HW,2013-05-09 05:26:00,
2013-05-08 22:31:00,54.0,47.7,30.11,WSW,248,1.1,1.3,79,0.00,,,0.00,WUHU216HW,2013-05-09 05:31:00,
2013-05-08 22:36:00,53.8,47.9,30.11,WSW,248,0.7,1.3,80,0.00,,,0.00,WUHU216HW,2013-05-09 05:36:00,
2013-05-08 22:41:00,53.8,47.9,30.11,WSW,248,0.4,1.3,80,0.00,,,0.00,WUHU216HW,2013-05-09 05:41:00,
2013-05-08 22:46:00,53.6,47.7,30.12,WSW,248,1.1,1.1,80,0.00,,,0.00,WUHU216HW,2013-05-09 05:46:00,
2013-05-08 22:51:00,53.6,47.7,30.12,WSW,248,0.9,1.3,80,0.00,,,0.00,WUHU216HW,2013-05-09 05:51:00,
2013-05-08 22:56:00,53.5,47.5,30.12,WSW,248,1.1,1.6,80,0.00,,,0.00,WUHU216HW,2013-05-09 05:56:00,
2013-05-08 23:01:00,53.5,47.5,30.12,WSW,248,1.3,1.6,80,0.00,,,0.00,WUHU216HW,2013-05-09 06:01:00,
2013-05-08 23:06:00,53.3,47.3,30.12,WSW,248,1.6,1.8,80,0.00,,,0.00,WUHU216HW,2013-05-09 06:06:00,
2013-05-08 23:11:00,52.9,47.0,30.12,WSW,248,0.9,1.8,80,0.00,,,0.00,WUHU216HW,2013-05-09 06:11:00,
2013-05-08 23:16:00,52.9,47.3,30.12,WSW,248,1.1,1.8,81,0.00,,,0.00,WUHU216HW,2013-05-09 06:16:00,
2013-05-08 23:21:00,52.9,47.3,30.12,WSW,248,0.7,1.1,81,0.00,,,0.00,WUHU216HW,2013-05-09 06:21:00,
2013-05-08 23:26:00,52.7,47.1,30.12,SW,225,0.9,1.1,81,0.00,,,0.00,WUHU216HW,2013-05-09 06:26:00,
2013-05-08 23:31:00,52.6,46.9,30.12,SW,225,0.9,1.1,81,0.00,,,0.00,WUHU216HW,2013-05-09 06:31:00,
2013-05-08 23:36:00,52.4,46.7,30.12,SW,225,0.9,1.1,81,0.00,,,0.00,WUHU216HW,2013-05-09 06:36:00,
2013-05-08 23:41:00,52.2,46.9,30.12,WSW,248,0.9,1.1,82,0.00,,,0.00,WUHU216HW,2013-05-09 06:41:00,
2013-05-08 23:46:00,52.2,46.9,30.12,WSW,248,0.9,1.1,82,0.00,,,0.00,WUHU216HW,2013-05-09 06:46:00,
2013-05-08 23:51:00,52.0,46.7,30.13,WSW,248,0.7,1.1,82,0.00,,,0.00,WUHU216HW,2013-05-09 06:51:00,
2013-05-08 23:56:00,51.8,46.5,30.13,WSW,248,1.1,1.6,82,0.00,,,0.00,WUHU216HW,2013-05-09 06:56:00,